{"data":{"norad_id":43622,"intl_designator":"2018-072A","name":"BEIDOU-3 M13 (C32)","alt_names":[],"object_type":"PAYLOAD","status":"ACTIVE","operator":null,"country":"PRC","launch_date":"2018-09-19","launch_site_code":"XICLF","launch_vehicle":null,"mission":null,"orbit_class":"UNKNOWN","rcs_meters":null,"size_class":null,"mass_kg":null,"dimensions":null,"purposes":["earth_obs","nav"],"wikipedia_slug":null,"has_3d_model":false,"image_url":null,"decayed_at":null,"tle_current":{"epoch":"2026-05-24T21:50:04.102080Z","epoch_age_seconds":82754,"freshness":"FRESH","line1":"1 43622U 18072A   26144.90976970 -.00000075  00000+0  00000+0 0  9990","line2":"2 43622  56.6058  63.4274 0008090 325.3050  34.6357  1.86231070 52227","mean_motion":1.8623107,"eccentricity":0.000809,"inclination_deg":56.6058,"raan_deg":63.4274,"arg_perigee_deg":325.305,"mean_anomaly_deg":34.6357,"bstar":0,"rev_number":5222,"period_min":773.23295194513,"perigee_km":21505.468470128,"apogee_km":21550.62067191,"semimajor_km":27906.181571019,"source":"CELESTRAK","updated_at":"2026-05-25T13:38:24.219640Z"}}}